Wind_Speed
5 5 4 4 5 5 5 6 5 6 6 6 6 6 6 6 6 7 7 7 6 6 5 5 5 4 4 5 5 4 4 4 3 2 2 2 2 1 1 1 0 1 1
5 5 5 5 5 5 5 5 5 5 5 5 5 5 5 5 5 6 6 5 5 5 5 5 4 4 4 5 4 4 4 4 3 2 2 2 2 1 1 1 1 0 1
5 5 5 5 4 4 5 6 6 5 5 5 5 6 5 5 4 4 4 5 5 5 5 4 4 4 4 4 3 3 3 3 2 1 1 1 1 1 1 1 1 1 1
5 5 5 5 5 5 5 6 6 5 5 5 5 5 5 5 5 4 5 4 4 5 4 4 4 4 4 4 3 3 3 3 2 1 1 1 1 1 1 1 1 1 1
6 6 6 6 6 5 5 5 5 5 5 5 5 5 5 5 5 5 4 4 4 4 4 4 4 4 4 4 3 3 2 2 2 1 1 1 1 2 2 2 2 2 2
7 7 8 7 6 5 6 6 6 6 6 6 6 6 5 5 4 4 4 4 4 4 3 3 4 4 5 4 4 3 2 2 2 2 2 2 3 3 3 3 3 3 3
8 9 9 9 8 8 9 9 8 7 7 7 6 6 5 5 4 4 4 4 4 4 3 3 3 4 5 5 4 3 3 2 2 2 2 3 3 4 4 4 4 4 3
9 9 9 10 10 10 10 10 9 8 8 7 6 6 5 5 4 4 3 2 3 3 3 3 3 3 3 4 3 2 2 3 3 2 3 3 3 3 4 5 4 4 4
8 9 9 9 10 10 10 9 9 8 8 7 6 6 6 5 4 4 3 2 2 2 2 2 2 3 3 2 2 2 3 2 2 2 2 2 3 3 4 4 4 4 5
8 8 9 9 9 9 9 9 9 9 8 7 7 6 6 5 4 3 3 3 2 3 2 2 2 2 2 1 2 2 2 2 3 2 2 3 3 3 4 4 4 4 5
8 8 8 8 8 8 8 8 8 8 8 7 7 7 6 6 5 4 3 3 4 3 3 3 2 2 1 1 1 1 2 2 3 3 3 3 3 3 4 5 5 5 5
8 8 8 8 7 8 8 8 9 8 8 7 7 6 5 5 5 4 4 4 4 4 3 2 2 1 0 1 1 1 2 2 3 3 3 3 3 4 4 5 5 6 6
9 9 8 8 8 7 8 8 7 7 7 6 6 5 4 4 3 3 3 4 4 4 3 2 2 1 1 1 1 1 2 2 2 2 3 3 3 4 4 5 5 5 6
9 8 8 8 8 8 8 7 7 6 5 5 5 4 4 3 3 3 4 4 3 3 2 2 2 1 1 1 1 2 2 2 2 2 3 4 4 4 4 4 5 5 6
8 8 8 8 8 7 7 7 7 6 6 5 5 4 4 3 3 2 3 3 3 2 2 2 2 2 2 2 2 2 3 2 3 4 4 4 5 5 5 6 6 6 7
8 8 8 8 7 7 6 6 6 6 5 5 5 4 3 2 2 2 2 3 2 2 2 2 3 3 3 3 3 4 4 4 4 4 5 5 6 6 6 7 7 7 8
7 7 7 7 6 6 6 5 5 5 5 4 4 2 2 2 1 2 2 2 2 2 2 2 3 3 3 4 4 5 4 5 5 5 6 6 7 7 7 7 8 9 9
7 7 7 7 6 6 5 5 5 5 5 4 3 3 2 2 1 1 2 2 2 2 2 2 3 3 4 4 5 5 6 6 6 6 7 7 8 8 8 8 8 9 9
6 7 7 7 7 6 6 6 5 5 5 4 4 3 3 2 1 0 2 2 2 2 2 3 4 4 4 5 5 6 6 7 7 7 8 8 8 8 8 9 9 10 10
5 6 6 6 6 6 6 5 4 5 4 4 4 4 3 2 1 1 2 2 3 3 3 3 4 5 5 5 6 7 7 8 8 8 9 9 9 9 10 10 11 11 11
5 5 5 6 6 5 5 5 4 4 4 4 4 4 3 3 2 2 2 3 3 3 4 4 5 5 5 6 6 7 8 8 9 9 10 10 10 11 11 12 12 11 11
5 5 5 5 5 4 5 5 5 4 4 4 4 4 4 3 3 3 2 3 4 4 5 5 6 6 7 7 7 8 8 9 9 10 11 11 12 12 12 12 12 12 12
4 4 3 3 3 3 3 4 4 4 3 3 3 3 3 4 3 3 3 3 3 3 4 5 6 7 8 8 8 9 9 9 10 11 11 12 12 13 13 13 14 14 13
1 1 1 1 1 2 2 2 3 3 3 3 3 3 3 4 4 3 3 4 4 4 5 5 6 7 8 8 9 10 10 11 11 12 13 13 13 14 14 14 14 14 14
2 1 2 1 1 1 1 1 2 3 3 4 4 4 4 5 5 5 5 5 5 5 6 6 7 8 9 9 9 10 11 12 12 13 13 14 14 14 14 14 15 15 15
3 3 3 2 2 2 2 2 3 3 4 4 5 5 5 5 6 6 6 6 6 7 7 8 8 9 9 10 11 12 12 13 13 14 14 14 15 14 14 15 16 16 16
Wind_Direction
94 105 100 103 122 128 128 134 132 123 119 120 120 121 120 121 129 133 134 140 145 142 142 144 148 148 153 147 148 143 144 151 145 121 129 140 159 157 145 185 243 164 181
87 104 110 108 119 125 131 134 133 134 131 126 128 128 133 133 128 134 139 144 146 146 151 150 147 142 154 159 158 146 144 152 149 141 147 157 183 183 167 183 175 171 218
86 98 103 102 118 124 135 138 139 136 131 130 136 142 141 144 143 145 148 145 150 153 156 156 152 145 160 176 164 151 142 151 160 158 159 167 187 213 238 203 201 235 248
90 93 89 96 109 125 138 143 138 135 135 135 136 146 150 153 153 154 152 149 147 145 151 159 160 156 171 178 173 162 156 162 170 166 163 145 195 243 265 261 290 266 246
90 88 88 97 107 122 134 140 137 131 133 132 133 138 142 145 152 158 159 164 156 151 162 174 178 183 185 194 191 182 179 186 204 229 249 256 260 265 260 276 291 281 248
88 87 89 95 104 113 124 130 124 125 127 124 125 130 131 134 138 155 154 159 158 165 175 187 199 207 205 205 205 201 208 222 223 241 267 261 262 264 266 281 283 276 264
90 89 92 94 96 103 112 116 115 115 116 117 116 122 120 130 143 151 149 154 164 176 182 192 207 214 219 212 207 212 226 231 231 238 262 271 273 270 278 286 279 271 267
87 89 93 93 94 96 100 101 106 107 109 111 114 115 127 141 144 136 134 133 151 173 181 193 194 194 189 193 200 215 229 238 255 265 271 268 276 279 278 289 282 275 269
88 91 93 95 97 98 100 101 101 103 107 107 110 119 122 128 134 137 134 145 149 154 170 175 178 169 173 185 190 200 226 238 255 279 276 273 279 285 281 287 286 279 269
82 89 93 95 99 103 106 105 103 102 106 110 111 113 116 115 114 121 135 155 156 151 148 152 160 170 170 168 184 196 222 253 262 264 266 277 276 279 277 278 275 274 270
81 86 97 97 102 106 106 103 101 99 104 107 107 106 111 115 120 126 121 132 161 169 156 137 131 138 172 235 233 242 263 270 268 259 273 281 283 281 272 270 267 268 264
80 82 87 93 98 100 103 102 99 100 104 106 107 108 110 112 112 119 121 138 152 160 153 145 143 158 212 233 246 267 283 287 280 265 277 288 290 283 277 273 274 266 259
83 83 85 88 92 97 101 103 104 102 105 105 106 112 114 117 116 122 127 140 140 148 156 163 165 182 226 243 255 277 282 289 280 275 288 294 293 289 278 276 277 269 270
80 81 87 91 92 92 94 101 107 102 106 110 107 108 114 119 123 122 123 134 140 148 161 169 182 214 227 259 283 288 283 297 291 290 296 290 292 294 284 278 279 271 269
79 80 85 93 94 91 91 96 96 90 91 96 100 101 105 115 124 125 140 148 148 161 179 192 212 225 234 252 268 287 291 278 292 293 288 282 287 290 284 280 277 275 270
76 79 84 93 97 96 93 94 94 86 85 89 90 90 101 121 147 164 158 165 174 183 191 218 237 240 253 253 256 269 278 282 292 291 290 288 289 289 284 278 276 277 275
70 75 81 85 91 93 92 88 85 81 84 93 84 75 87 115 147 175 178 190 202 212 238 246 250 250 258 261 258 260 270 282 289 292 289 289 290 288 283 281 281 277 278
72 76 80 82 83 80 80 83 85 85 85 90 78 63 57 64 105 167 195 205 217 229 244 257 267 259 263 266 266 265 269 279 289 290 289 288 288 286 282 283 283 281 281
77 82 85 82 79 76 74 76 80 82 82 79 67 55 48 42 28 238 221 223 236 247 258 267 268 269 273 272 272 275 279 281 286 288 289 288 285 284 285 285 283 282 279
79 86 88 83 79 74 71 72 76 73 67 60 52 43 35 22 339 295 253 252 262 268 271 273 276 276 277 277 278 283 285 285 286 285 287 288 286 285 286 288 287 283 278
83 90 92 88 81 71 62 59 61 63 52 44 42 39 33 19 354 321 278 266 268 277 281 283 280 280 279 280 284 287 287 288 286 285 284 285 285 286 286 285 286 280 277
84 89 90 86 79 66 56 49 48 49 42 39 40 37 32 23 13 358 315 294 282 283 288 288 286 284 286 284 283 284 288 289 287 284 284 285 283 284 286 285 281 281 282
74 78 80 81 71 56 53 46 37 32 30 26 24 21 17 16 5 356 339 324 314 300 298 295 291 287 290 289 284 284 286 287 287 287 286 285 282 281 283 284 283 282 282
53 74 77 54 56 27 29 35 32 29 22 7 0 357 353 351 345 342 334 328 325 313 310 303 298 295 292 289 285 284 288 290 292 292 289 287 284 283 283 284 286 282 282
336 304 279 294 337 338 310 332 351 355 354 346 338 333 333 332 329 323 318 315 314 307 307 304 306 303 297 292 289 290 292 292 293 295 293 293 290 288 286 285 285 284 282
310 308 303 301 312 323 316 317 332 340 338 336 332 325 324 321 316 313 308 306 306 305 303 303 302 303 299 296 294 294 294 293 295 297 297 296 293 292 290 289 288 287 285
Height
5871 5871 5871 5872 5872 5872 5873 5874 5875 5875 5876 5877 5877 5878 5879 5879 5880 5881 5883 5884 5886 5887 5888 5889 5890 5890 5891 5892 5893 5894 5895 5895 5896 5897 5897 5897 5898 5898 5898 5898 5898 5898 5898
5872 5872 5872 5873 5873 5874 5874 5875 5875 5876 5877 5877 5878 5879 5880 5881 5881 5882 5884 5885 5887 5888 5889 5889 5891 5891 5892 5893 5894 5895 5895 5896 5897 5897 5898 5898 5898 5898 5898 5898 5898 5899 5899
5873 5873 5873 5873 5873 5874 5874 5875 5876 5876 5877 5878 5878 5879 5880 5882 5883 5884 5885 5886 5887 5888 5889 5890 5891 5892 5893 5894 5894 5895 5896 5896 5897 5897 5898 5898 5899 5899 5899 5899 5899 5899 5899
5874 5873 5873 5873 5873 5874 5874 5875 5876 5876 5877 5878 5879 5880 5881 5882 5884 5885 5886 5887 5888 5889 5890 5891 5892 5893 5893 5894 5895 5896 5896 5897 5897 5898 5898 5898 5899 5899 5899 5899 5899 5899 5899
5875 5874 5874 5873 5873 5873 5874 5875 5876 5877 5877 5878 5879 5880 5881 5883 5884 5885 5887 5888 5889 5890 5891 5891 5892 5893 5894 5895 5895 5896 5896 5897 5897 5898 5898 5898 5898 5899 5899 5899 5899 5899 5899
5876 5875 5875 5874 5874 5874 5874 5875 5876 5877 5878 5879 5880 5881 5882 5883 5884 5886 5887 5888 5889 5890 5891 5892 5893 5893 5894 5895 5896 5896 5897 5897 5897 5898 5898 5898 5898 5898 5898 5899 5899 5899 5898
5877 5877 5877 5876 5876 5875 5876 5877 5878 5878 5879 5880 5881 5882 5883 5884 5885 5886 5887 5888 5889 5890 5891 5892 5893 5893 5894 5894 5895 5896 5896 5897 5898 5898 5898 5898 5898 5898 5898 5898 5898 5898 5898
5879 5879 5878 5878 5878 5878 5878 5879 5879 5880 5880 5881 5882 5883 5884 5885 5886 5887 5888 5889 5889 5890 5891 5892 5893 5893 5894 5894 5895 5896 5896 5897 5897 5897 5897 5897 5897 5897 5897 5897 5897 5897 5897
5881 5881 5881 5880 5880 5880 5881 5881 5881 5881 5882 5883 5883 5884 5885 5886 5887 5888 5888 5888 5889 5890 5891 5892 5892 5893 5894 5895 5895 5895 5896 5896 5897 5897 5897 5897 5896 5897 5897 5897 5897 5897 5897
5883 5883 5882 5882 5882 5882 5883 5883 5883 5883 5884 5884 5885 5886 5887 5887 5888 5888 5888 5888 5889 5890 5891 5892 5893 5893 5894 5895 5895 5895 5896 5896 5896 5896 5896 5896 5896 5896 5896 5896 5896 5896 5896
5884 5884 5884 5884 5884 5884 5884 5885 5885 5885 5885 5886 5886 5887 5888 5888 5889 5889 5888 5888 5889 5891 5892 5892 5893 5894 5894 5895 5895 5895 5895 5896 5896 5896 5896 5896 5896 5896 5896 5896 5896 5895 5895
5886 5886 5886 5886 5886 5886 5886 5886 5886 5887 5887 5888 5888 5889 5889 5889 5890 5889 5889 5889 5890 5891 5892 5893 5894 5894 5894 5895 5895 5895 5895 5895 5895 5895 5895 5895 5895 5895 5895 5895 5895 5895 5895
5888 5887 5887 5887 5887 5887 5887 5888 5888 5888 5888 5889 5889 5890 5890 5890 5890 5890 5890 5891 5891 5892 5893 5893 5894 5894 5895 5895 5895 5895 5895 5895 5895 5895 5895 5895 5894 5894 5894 5894 5894 5894 5894
5889 5889 5888 5888 5888 5889 5889 5889 5889 5889 5890 5890 5890 5890 5891 5891 5891 5891 5891 5892 5892 5893 5893 5893 5894 5894 5895 5895 5895 5895 5895 5895 5894 5894 5894 5894 5894 5894 5893 5893 5893 5893 5893
5891 5890 5890 5890 5890 5890 5890 5890 5890 5890 5890 5890 5891 5891 5891 5891 5891 5891 5891 5892 5892 5893 5893 5893 5894 5894 5895 5895 5895 5894 5894 5894 5894 5894 5894 5893 5893 5893 5892 5892 5892 5891 5891
5892 5892 5891 5891 5891 5891 5891 5891 5891 5891 5891 5891 5891 5891 5891 5890 5891 5891 5891 5892 5892 5892 5893 5893 5893 5894 5894 5894 5894 5894 5894 5894 5893 5893 5893 5892 5892 5892 5891 5891 5891 5890 5890
5894 5893 5893 5893 5893 5893 5893 5893 5892 5892 5892 5892 5891 5891 5890 5890 5890 5891 5891 5892 5892 5892 5892 5893 5893 5893 5893 5893 5893 5893 5893 5893 5893 5892 5892 5891 5891 5890 5890 5889 5889 5889 5888
5895 5895 5894 5894 5894 5894 5894 5894 5893 5893 5893 5892 5892 5891 5890 5890 5890 5890 5891 5891 5892 5892 5892 5892 5892 5892 5892 5892 5892 5892 5892 5892 5891 5891 5890 5890 5889 5889 5888 5888 5887 5887 5886
5896 5896 5896 5896 5895 5895 5895 5894 5894 5894 5893 5893 5892 5891 5890 5890 5890 5890 5890 5891 5891 5891 5891 5891 5891 5891 5891 5891 5891 5891 5891 5890 5890 5890 5889 5888 5888 5887 5886 5886 5885 5884 5884
5897 5897 5897 5897 5897 5896 5896 5895 5895 5894 5894 5893 5893 5892 5891 5890 5890 5890 5890 5890 5890 5891 5890 5890 5890 5890 5890 5890 5890 5889 5889 5889 5888 5888 5887 5887 5886 5885 5884 5884 5883 5882 5881
5898 5898 5898 5898 5898 5897 5897 5896 5895 5895 5894 5894 5893 5892 5891 5891 5890 5889 5889 5889 5890 5890 5889 5889 5889 5889 5889 5888 5888 5888 5887 5887 5886 5886 5885 5884 5884 5883 5882 5881 5880 5879 5879
5899 5899 5898 5898 5898 5898 5897 5897 5896 5895 5895 5894 5893 5893 5892 5891 5890 5890 5890 5889 5889 5889 5888 5888 5888 5887 5887 5887 5887 5886 5886 5886 5884 5883 5883 5882 5881 5880 5879 5879 5878 5877 5876
5899 5899 5899 5899 5898 5898 5898 5897 5896 5896 5895 5894 5894 5893 5892 5891 5890 5890 5889 5889 5888 5887 5887 5887 5887 5886 5886 5885 5885 5885 5884 5883 5882 5882 5880 5880 5879 5878 5877 5876 5875 5874 5873
5899 5899 5899 5899 5898 5898 5898 5897 5896 5896 5895 5895 5894 5893 5892 5891 5890 5889 5889 5888 5887 5887 5886 5886 5886 5885 5884 5883 5883 5882 5882 5881 5880 5879 5878 5877 5876 5875 5874 5873 5872 5871 5870
5899 5898 5898 5898 5898 5897 5897 5897 5896 5896 5895 5894 5893 5892 5891 5891 5890 5889 5888 5887 5887 5886 5886 5885 5884 5884 5883 5882 5881 5880 5879 5879 5878 5877 5875 5874 5873 5872 5871 5870 5869 5868 5867
5898 5898 5897 5897 5897 5897 5897 5896 5896 5895 5894 5893 5893 5892 5891 5890 5889 5888 5887 5887 5886 5885 5884 5884 5883 5882 5881 5880 5879 5878 5877 5876 5875 5874 5873 5872 5870 5869 5867 5866 5865 5864 5863